Location: Bruch
(44.2051°N, 0.4120°E)
Time: 09:32:55
(UTC+00:00)

Gbstr 26 Del rocket - Pass Details

Date: 29 November 2020
Orbit: 493 x 1263 km, 51.8° (Epoch: 25 January)

Event Time Altitude Azimuth Distance (km) Brightness Sun altitude
Exits shadow 06:25:50 11° 283° (WNW) 1,669 4.6 -8.2°
Maximum altitude 06:29:04 30° 222° (SW) 948 3.9 -7.7°
Drops below altitude 10° 06:32:39 10° 160° (SSE) 1,837 6.2 -7.1°
Sets 06:35:13 0° 150° (SSE) 2,827 7.4 -6.7°
